EW7376 Weather Reports


time (UTC)temp
F
wind
direction
speed
knots
gust
knots
rain 1hr
in
rain 24hr
in
rain mn
in
humidity
%
barometer
mb
20260509223058 86 108 0.0 0.0 0.00 0.00 0.00 45 1006.9
20260509221541 85 101 0.0 0.0 0.00 0.00 0.00 45 1007.0
20260509220041 85 73 0.0 0.0 0.00 0.00 0.00 45 1007.1
20260509214540 86 95 0.0 0.0 0.00 0.00 0.00 44 1007.3
20260509213138 86 80 0.0 0.0 0.00 0.00 0.00 46 1007.5
20260509211544 86 116 0.0 0.0 0.00 0.00 0.00 41 1007.7
20260509210038 87 123 0.0 0.0 0.00 0.00 0.00 43 1007.9
20260509204530 86 208 0.0 0.0 0.00 0.00 0.00 42 1008.1
20260509203031 86 58 0.0 0.0 0.00 0.00 0.00 44 1008.2
20260509201516 86 99 0.0 0.0 0.00 0.00 0.00 43 1008.4
20260509200013 85 92 0.0 0.0 0.00 0.00 0.00 43 1008.5
20260509194520 85 184 0.0 0.0 0.00 0.00 0.00 43 1008.7
20260509193010 85 296 0.0 0.0 0.00 0.00 0.00 42 1008.8
20260509191508 84 5 0.0 0.0 0.00 0.00 0.00 45 1009.0
20260509190006 84 274 0.0 0.0 0.00 0.00 0.00 43 1009.1
20260509184502 83 132 0.0 0.0 0.00 0.00 0.00 45 1009.2
20260509183110 83 270 0.0 0.0 0.00 0.00 0.00 47 1009.4
20260509181548 83 317 0.0 0.0 0.00 0.00 0.00 52 1009.6
20260509180041 82 113 0.0 0.0 0.00 0.00 0.00 57 1009.9
20260509174537 81 106 0.0 0.0 0.00 0.00 0.00 59 1010.2
20260509173036 80 267 0.0 0.0 0.00 0.00 0.00 63 1010.1
20260509171533 81 261 0.0 0.0 0.00 0.00 0.00 64 1010.4
20260509170030 80 5 0.0 0.0 0.00 0.00 0.00 62 1010.6
20260509164526 79 57 0.0 0.0 0.00 0.00 0.00 66 1010.8
20260509163029 78 269 0.0 0.0 0.00 0.00 0.00 69 1011.0
20260509161501 77 290 0.0 0.0 0.00 0.00 0.00 71 1011.0
20260509160100 76 270 0.0 0.0 0.00 0.00 0.00 74 1011.0
20260509154547 76 287 0.0 0.0 0.00 0.00 0.00 76 1010.8
20260509153043 76 230 0.0 0.0 0.00 0.00 0.00 75 1010.7
20260509151539 75 162 0.0 0.0 0.00 0.00 0.00 79 1010.7
20260509150036 74 141 0.0 0.0 0.00 0.00 0.00 81 1010.8
20260509144532 73 184 0.0 0.0 0.00 0.00 0.00 84 1010.8
20260509143029 72 147 0.0 0.0 0.00 0.00 0.00 86 1010.8
20260509141537 71 108 0.0 0.0 0.00 0.00 0.00 88 1010.9
20260509140021 70 94 0.0 0.0 0.00 0.00 0.00 91 1011.0
20260509134505 68 169 0.0 0.0 0.00 0.00 0.00 93 1011.0
20260509133002 67 170 0.0 0.0 0.00 0.00 0.00 95 1011.0
20260509131505 66 170 0.0 0.0 0.00 0.00 0.00 95 1011.0
20260509130107 65 289 0.0 0.0 0.00 0.00 0.00 95 1010.8
20260509124603 64 299 0.0 0.0 0.00 0.00 0.00 95 1010.6
20260509123101 63 300 0.0 0.0 0.00 0.00 0.00 95 1010.3
20260509121559 63 308 0.0 0.0 0.00 0.00 0.00 95 1009.9
20260509120057 63 308 0.0 0.0 0.00 0.00 0.00 94 1009.6
20260509114557 63 308 0.0 0.0 0.00 0.00 0.00 94 1009.4
20260509113103 62 308 0.0 0.0 0.00 0.00 0.00 94 1009.3
20260509111548 62 308 0.0 0.0 0.00 0.00 0.00 94 1008.9
20260509110044 62 308 0.0 0.0 0.00 0.00 0.00 94 1008.9
20260509104554 63 308 0.0 0.0 0.00 0.00 0.00 94 1009.0
20260509103052 63 308 0.0 0.0 0.00 0.00 0.00 94 1008.8
20260509101543 63 308 0.0 0.0 0.00 0.00 0.00 93 1008.9
20260509100059 64 311 0.0 0.0 0.00 0.00 0.00 93 1008.8
20260509094548 64 311 0.0 0.0 0.00 0.00 0.00 93 1008.8
20260509093032 64 311 0.0 0.0 0.00 0.00 0.00 93 1008.9
20260509091534 64 311 0.0 0.0 0.00 0.00 0.00 92 1008.9
20260509090029 65 313 0.0 0.0 0.00 0.00 0.00 92 1009.0
20260509084528 65 311 0.0 0.0 0.00 0.00 0.00 92 1009.1
20260509083038 65 309 0.0 0.0 0.00 0.00 0.00 92 1009.1
20260509081528 66 309 0.0 0.0 0.00 0.00 0.00 91 1009.2
20260509080023 66 311 0.0 0.0 0.00 0.00 0.00 91 1009.4
20260509074524 66 304 0.0 0.0 0.00 0.00 0.00 91 1009.7
20260509073014 66 313 0.0 0.0 0.00 0.00 0.00 91 1009.7
20260509071511 66 338 0.0 0.0 0.00 0.00 0.00 89 1009.6
20260509070010 67 142 0.0 0.0 0.00 0.00 0.00 89 1009.6
20260509064520 67 142 0.0 0.0 0.00 0.00 0.00 88 1009.2
20260509063009 68 142 0.0 0.0 0.00 0.00 0.00 88 1009.1
20260509061522 68 142 0.0 0.0 0.00 0.00 0.00 87 1009.2
20260509060008 68 141 0.0 0.0 0.00 0.00 0.00 87 1009.2
20260509054508 69 141 0.0 0.0 0.00 0.00 0.00 86 1009.1
20260509053101 69 141 0.0 0.0 0.00 0.00 0.00 85 1009.7
20260509051557 70 141 0.0 0.0 0.00 0.00 0.00 84 1009.4
20260509050056 70 141 0.0 0.0 0.00 0.00 0.00 83 1009.3
20260509044558 70 141 0.0 0.0 0.00 0.00 0.00 83 1009.3
20260509043100 70 189 0.0 0.0 0.00 0.00 0.00 83 1009.2
20260509041554 70 188 0.0 0.0 0.00 0.00 0.00 83 1009.0
20260509040057 70 137 0.0 0.0 0.00 0.00 0.00 83 1009.2
20260509034601 71 130 0.0 0.0 0.00 0.00 0.00 82 1009.3
20260509033035 71 157 0.0 0.0 0.00 0.00 0.00 81 1009.4
20260509031535 72 103 0.0 0.0 0.00 0.00 0.00 79 1008.2
20260509030024 73 99 0.0 0.0 0.00 0.00 0.00 78 1010.0
20260509024525 73 99 0.0 0.0 0.00 0.00 0.00 77 1009.5
20260509023022 73 109 0.0 0.0 0.00 0.00 0.00 77 1008.9
20260509021521 73 107 0.0 0.0 0.00 0.00 0.00 77 1009.0
20260509020023 73 96 0.0 0.0 0.00 0.00 0.00 76 1008.5
20260509014521 74 78 0.0 0.0 0.00 0.00 0.00 75 1007.8
20260509013019 75 101 0.0 0.0 0.00 0.00 0.00 73 1007.6
20260509011518 75 145 0.0 0.0 0.00 0.00 0.00 73 1007.5
20260509010006 75 137 0.0 0.0 0.00 0.00 0.00 72 1006.8
20260509004510 76 119 0.0 0.0 0.00 0.00 0.00 71 1006.8
20260509003006 76 117 0.0 0.0 0.00 0.00 0.00 69 1006.7
20260509001503 77 120 0.0 0.0 0.00 0.00 0.00 67 1006.5
20260509000002 78 138 0.0 0.0 0.00 0.00 0.00 67 1006.5
20260508234601 79 123 0.0 0.0 0.00 0.00 0.00 65 1006.5
20260508233107 79 130 0.0 0.0 0.00 0.00 0.00 63 1006.5
20260508231634 80 137 0.0 0.0 0.00 0.00 0.00 62 1006.8
20260508230057 80 106 0.0 0.0 0.00 0.00 0.00 62 1006.5
20260508224542 79 144 0.0 0.0 0.00 0.00 0.00 63 1006.6